Fastsat-HSV

operational
NORAD ID: 37225 Int'l Des: 2010-062 Owner: AFSMC Country: US
LEOCIRCULAR

关于 Fastsat-HSV

正在加载描述...

实时位置

正在加载3D地球...

即将过境

高度历史

Altitude vs Time

uPlot chart will show altitude changes over time

两行轨道根数

1 37225U 10062D 26063.34135985 .00001231 00000-0 16186-3 0 9995
2 37225 71.9727 32.8794 0017984 319.1466 40.8349 14.82010686 98591
Epoch: Mar 4, 2026 • Age: 20 hours

当前状态

高度 635.9 km
速度 7.54 km/s
星下点 13.41°N, 100.54°E
发射日期 Nov 20, 2010
运行时间 15.2 years
类型 other

技术详情

分类 Payload
质量 148.00 kg
干质量 148.00 kg
总质量 148.00 kg
长度 1.00 m
直径 0.70 m
跨度 5.00 m
形状 Box + Ant
制造商 DYNT
平台类型 FASTSAT
阶段状态 In Orbit
所有者/国家 AFSMC/US

大型星座

Loading constellations...